Location: Votelez
(50.0000°N, 15.0000°E)
Time: 09:59:57
(UTC+01:00)

ISS - Pass Details

Date: 21 February 2026
Orbit: 416 x 426 km, 51.6° (Epoch: 9 March)

Event Time Altitude Azimuth Distance (km) Brightness Sun altitude
Exits shadow 05:46:16 22° 277° (W) 968 -2.6 -12.5°
Maximum altitude 05:48:16 65° 356° (N) 462 -3.6 -12.1°
Drops below altitude 10° 05:51:36 10° 79° (ENE) 1,494 0.4 -11.6°
Sets 05:53:42 0° 82° (E) 2,357 2.0 -11.3°
